DW7854 Weather Reports


time (UTC)temp
C
wind
direction
speed
KPH
gust
KPH
rain 1hr
cm
rain 24hr
cm
rain mn
cm
humidity
%
barometer
mb
20260831195002 38 166 8.0 16.1 0.00 0.00 0.00 40 1014.5
20260831194511 38 160 8.0 16.1 0.00 0.00 0.00 40 1014.2
20260831194102 38 164 8.0 12.9 0.00 0.00 0.00 40 1014.6
20260831193202 37 172 8.0 19.3 0.00 0.00 0.00 42 1014.6
20260831193006 37 165 8.0 22.5 0.00 0.00 0.00 42 1014.3
20260831192305 37 149 6.4 22.5 0.00 0.00 0.00 41 1014.7
20260831191604 37 107 6.4 14.5 0.00 0.00 0.00 42 1014.4
20260831191402 37 196 4.8 11.3 0.00 0.00 0.00 43 1014.8
20260831190502 37 330 3.2 9.7 0.00 0.00 0.00 42 1014.9
20260831190006 37 313 3.2 8.0 0.00 0.00 0.00 42 1014.6
20260831185602 37 153 6.4 12.9 0.00 0.00 0.00 43 1015.1
20260831184702 37 146 6.4 14.5 0.00 0.00 0.00 43 1015.3
20260831184605 37 145 8.0 14.5 0.00 0.00 0.00 43 1014.9
20260831183103 36 162 3.2 11.3 0.00 0.00 0.00 45 1015.1
20260831182902 36 104 4.8 11.3 0.00 0.00 0.00 45 1015.4
20260831182002 37 141 6.4 11.3 0.00 0.00 0.00 43 1015.5
20260831181504 36 170 4.8 11.3 0.00 0.00 0.00 44 1015.2
20260831181102 37 185 6.4 11.3 0.00 0.00 0.00 44 1015.7
20260831180202 37 187 4.8 12.9 0.00 0.00 0.00 45 1015.8
20260831180005 36 253 4.8 12.9 0.00 0.00 0.00 46 1015.5
20260831174605 36 93 4.8 11.3 0.00 0.00 0.00 45 1015.7
20260831174402 37 173 8.0 11.3 0.00 0.00 0.00 45 1016.1
20260831173502 36 169 4.8 14.5 0.00 0.00 0.00 46 1016.3
20260831173106 36 151 1.6 14.5 0.00 0.00 0.00 48 1016.1
20260831172602 36 165 6.4 14.5 0.00 0.00 0.00 47 1016.5
20260831171702 36 152 4.8 11.3 0.00 0.00 0.00 49 1016.6
20260831171505 35 165 6.4 11.3 0.00 0.00 0.00 50 1016.3
20260831170107 35 167 8.0 12.9 0.00 0.00 0.00 50 1016.4
20260831165902 35 163 6.4 12.9 0.00 0.00 0.00 50 1016.8
20260831165002 35 165 6.4 16.1 0.00 0.00 0.00 52 1016.8
20260831164613 35 166 4.8 12.9 0.00 0.00 0.00 52 1016.5
20260831164101 35 135 6.4 14.5 0.00 0.00 0.00 54 1016.9
20260831163202 34 169 6.4 14.5 0.00 0.00 0.00 52 1017.0
20260831163106 34 157 3.2 14.5 0.00 0.00 0.00 54 1016.7
20260831162305 34 163 6.4 12.9 0.00 0.00 0.00 54 1017.0
20260831161508 33 288 6.4 17.7 0.00 0.00 0.00 56 1016.8
20260831161401 34 169 8.0 16.1 0.00 0.00 0.00 56 1017.0
20260831160505 34 165 8.0 14.5 0.00 0.00 0.00 55 1017.0
20260831160012 34 168 6.4 12.9 0.00 0.00 0.00 56 1016.7
20260831155603 34 174 4.8 12.9 0.00 0.00 0.00 55 1017.0
20260831154702 33 177 3.2 11.3 0.00 0.00 0.00 58 1017.1
20260831154510 33 188 4.8 11.3 0.00 0.00 0.00 58 1016.6
20260831153801 33 154 3.2 8.0 0.00 0.00 0.00 59 1017.0
20260831153003 32 115 1.6 12.9 0.00 0.00 0.00 60 1016.6
20260831152901 32 154 4.8 12.9 0.00 0.00 0.00 60 1017.0
20260831152002 32 154 3.2 11.3 0.00 0.00 0.00 61 1017.0
20260831151504 31 181 1.6 9.7 0.00 0.00 0.00 63 1016.7
20260831151102 31 187 4.8 9.7 0.00 0.00 0.00 63 1017.0
20260831150107 31 300 3.2 9.7 0.00 0.00 0.00 63 1016.7
20260831145306 31 146 4.8 11.3 0.00 0.00 0.00 64 1017.1
20260831144612 30 158 6.4 11.3 0.00 0.00 0.00 64 1016.7
20260831143501 30 166 4.8 8.0 0.00 0.00 0.00 66 1016.9
20260831143003 30 184 3.2 8.0 0.00 0.00 0.00 66 1016.5
20260831142601 30 157 3.2 9.7 0.00 0.00 0.00 67 1016.9
20260831141701 30 177 4.8 8.0 0.00 0.00 0.00 68 1016.8
20260831141505 29 158 3.2 8.0 0.00 0.00 0.00 68 1016.5
20260831140802 29 168 4.8 8.0 0.00 0.00 0.00 69 1016.7
20260831140110 28 172 3.2 9.7 0.00 0.00 0.00 70 1016.3
20260831135901 28 179 4.8 9.7 0.00 0.00 0.00 70 1016.6
20260831134605 28 172 3.2 8.0 0.00 0.00 0.00 72 1016.4
20260831133201 27 167 3.2 8.0 0.00 0.00 0.00 75 1016.6
20260831133103 27 152 3.2 8.0 0.00 0.00 0.00 75 1016.3
20260831131605 25 142 1.6 3.2 0.00 0.00 0.00 79 1016.1
20260831131401 26 159 0.0 1.6 0.00 0.00 0.00 79 1016.3
20260831130501 25 169 1.6 4.8 0.00 0.00 0.00 79 1016.1
20260831130005 25 151 0.0 3.2 0.00 0.00 0.00 79 1015.8
20260831124503 25 106 0.0 1.6 0.00 0.00 0.00 79 1015.6
20260831123801 25 130 1.6 4.8 0.00 0.00 0.00 80 1015.8
20260831123107 25 130 0.0 1.6 0.00 0.00 0.00 79 1015.4
20260831122901 25 129 0.0 1.6 0.00 0.00 0.00 79 1015.7
20260831122001 25 130 0.0 3.2 0.00 0.00 0.00 79 1015.5
20260831121504 25 130 0.0 1.6 0.00 0.00 0.00 79 1015.3
20260831121101 25 130 0.0 3.2 0.00 0.00 0.00 79 1015.5
20260831120202 25 132 0.0 3.2 0.00 0.00 0.00 79 1015.4
20260831120108 25 130 0.0 3.2 0.00 0.00 0.00 79 1015.1
20260831115301 25 118 0.0 3.2 0.00 0.00 0.00 78 1015.3
20260831114511 25 105 0.0 3.2 0.00 0.00 0.00 78 1014.9
20260831113501 25 93 1.6 4.8 0.00 0.00 0.00 78 1015.2
20260831113002 25 124 1.6 6.4 0.00 0.00 0.00 78 1014.8
20260831112601 25 70 0.0 4.8 0.00 0.00 0.00 78 1015.1
20260831111701 25 82 0.0 3.2 0.00 0.00 0.00 78 1015.0
20260831111604 25 45 0.0 3.2 0.00 0.00 0.00 78 1014.7
20260831110802 25 144 0.0 3.2 0.00 0.00 0.00 78 1015.0
20260831110004 25 144 0.0 4.8 0.00 0.00 0.00 77 1014.7
20260831105001 25 63 1.6 3.2 0.00 0.00 0.00 77 1014.8
20260831104510 25 85 0.0 3.2 0.00 0.00 0.00 77 1014.4
20260831104101 25 56 0.0 3.2 0.00 0.00 0.00 77 1014.7
20260831103003 25 39 0.0 3.2 0.00 0.00 0.00 76 1014.5
20260831102305 25 74 0.0 1.6 0.00 0.00 0.00 76 1014.7
20260831101506 25 94 0.0 3.2 0.00 0.00 0.00 76 1014.5
20260831101401 25 105 0.0 3.2 0.00 0.00 0.00 76 1014.8
20260831100501 26 109 0.0 3.2 0.00 0.00 0.00 76 1014.7
20260831100006 25 125 0.0 3.2 0.00 0.00 0.00 75 1014.4
20260831094701 26 142 0.0 1.6 0.00 0.00 0.00 75 1014.6
20260831094508 25 143 0.0 1.6 0.00 0.00 0.00 75 1014.3
20260831093801 26 125 1.6 3.2 0.00 0.00 0.00 75 1014.5
20260831093005 25 121 1.6 6.4 0.00 0.00 0.00 75 1014.2
20260831092902 26 125 1.6 8.0 0.00 0.00 0.00 75 1014.4
20260831092001 26 133 1.6 4.8 0.00 0.00 0.00 75 1014.4
20260831091506 25 151 0.0 4.8 0.00 0.00 0.00 74 1014.2
20260831091101 26 129 1.6 4.8 0.00 0.00 0.00 74 1014.5
20260831090201 26 184 0.0 3.2 0.00 0.00 0.00 74 1014.5
20260831090007 26 187 0.0 3.2 0.00 0.00 0.00 74 1014.3
20260831085301 26 161 0.0 3.2 0.00 0.00 0.00 73 1014.5
20260831084503 26 134 0.0 1.6 0.00 0.00 0.00 73 1014.2
20260831084401 26 122 0.0 1.6 0.00 0.00 0.00 73 1014.5
20260831083501 26 136 0.0 3.2 0.00 0.00 0.00 73 1014.4
20260831083104 26 122 0.0 4.8 0.00 0.00 0.00 73 1014.1
20260831082601 26 150 0.0 4.8 0.00 0.00 0.00 72 1014.3
20260831081701 26 143 1.6 3.2 0.00 0.00 0.00 72 1014.3
20260831081607 26 138 0.0 4.8 0.00 0.00 0.00 72 1014.1
20260831080801 26 125 1.6 4.8 0.00 0.00 0.00 72 1014.3
20260831080003 26 124 0.0 8.0 0.00 0.00 0.00 72 1014.1
20260831075001 26 126 3.2 6.4 0.00 0.00 0.00 72 1014.4
20260831074605 26 141 1.6 6.4 0.00 0.00 0.00 72 1014.1
20260831074101 26 137 1.6 6.4 0.00 0.00 0.00 72 1014.4
20260831073201 26 121 1.6 6.4 0.00 0.00 0.00 72 1014.4
20260831073013 26 131 0.0 6.4 0.00 0.00 0.00 72 1014.1
20260831072301 27 111 1.6 6.4 0.00 0.00 0.00 72 1014.4
20260831071503 26 86 1.6 6.4 0.00 0.00 0.00 72 1014.1
20260831071401 27 110 1.6 8.0 0.00 0.00 0.00 72 1014.4
20260831070021 27 126 1.6 8.0 0.00 0.00 0.00 71 1014.2
20260831065601 27 134 1.6 6.4 0.00 0.00 0.00 71 1014.4
20260831064701 27 118 1.6 8.0 0.00 0.00 0.00 70 1014.4
20260831064504 27 109 0.0 8.0 0.00 0.00 0.00 70 1014.2
20260831063008 27 137 0.0 4.8 0.00 0.00 0.00 69 1014.2
20260831062901 27 126 1.6 4.8 0.00 0.00 0.00 69 1014.5
20260831062001 27 129 1.6 9.7 0.00 0.00 0.00 69 1014.6
20260831061610 27 79 1.6 9.7 0.00 0.00 0.00 69 1014.3
20260831061101 27 127 3.2 9.7 0.00 0.00 0.00 68 1014.6
20260831060201 27 128 3.2 9.7 0.00 0.00 0.00 68 1014.6
20260831060112 27 123 3.2 9.7 0.00 0.00 0.00 68 1014.3
20260831055301 27 133 3.2 11.3 0.00 0.00 0.00 68 1014.4
20260831054603 27 155 1.6 11.3 0.00 0.00 0.00 68 1014.1
20260831054401 28 140 4.8 11.3 0.00 0.00 0.00 68 1014.3
20260831053005 28 132 3.2 11.3 0.00 0.00 0.00 68 1014.0
20260831052601 28 135 4.8 11.3 0.00 0.00 0.00 68 1014.2
20260831051606 28 117 4.8 12.9 0.00 0.00 0.00 68 1014.0
20260831050801 28 143 4.8 11.3 0.00 0.00 0.00 68 1014.0
20260831050104 28 144 4.8 11.3 0.00 0.00 0.00 68 1013.8
20260831045901 28 135 4.8 9.7 0.00 0.00 0.00 67 1014.1
20260831045001 28 140 4.8 11.3 0.00 0.00 0.00 67 1014.1
20260831044505 28 138 4.8 11.3 0.00 0.00 0.00 67 1013.9
20260831044101 28 143 4.8 8.0 0.00 0.00 0.00 67 1014.1
20260831043201 28 130 4.8 11.3 0.00 0.00 0.00 66 1014.0
20260831043105 28 128 3.2 11.3 0.00 0.00 0.00 66 1013.8
20260831042301 28 129 3.2 11.3 0.00 0.00 0.00 66 1014.1
20260831041522 28 96 3.2 8.0 0.00 0.00 0.00 65 1013.8
20260831040003 28 128 4.8 12.9 0.00 0.00 0.00 65 1013.6
20260831035601 27 123 3.2 8.0 0.00 0.00 0.00 65 1013.8
20260831034701 27 124 1.6 8.0 0.00 0.00 0.00 66 1013.8
20260831034607 27 138 3.2 11.3 0.00 0.00 0.00 66 1013.5
20260831033801 27 120 1.6 4.8 0.00 0.00 0.00 65 1013.7
20260831033105 27 56 0.0 3.2 0.00 0.00 0.00 65 1013.3
20260831031604 27 49 0.0 1.6 0.00 0.00 0.00 63 1013.2
20260831031101 27 0 0.0 0.0 0.00 0.00 0.00 63 1013.4
20260831030201 27 0 0.0 0.0 0.00 0.00 0.00 61 1013.3
20260831030003 27 49 0.0 0.0 0.00 0.00 0.00 60 1013.1
20260831025301 27 0 0.0 0.0 0.00 0.00 0.00 59 1013.2
20260831024510 27 49 0.0 0.0 0.00 0.00 0.00 58 1012.9
20260831024401 28 0 0.0 0.0 0.00 0.00 0.00 58 1013.1
20260831023501 28 0 0.0 0.0 0.00 0.00 0.00 57 1013.0
20260831023004 27 49 0.0 0.0 0.00 0.00 0.00 56 1012.8
20260831021701 28 0 0.0 0.0 0.00 0.00 0.00 57 1012.8
20260831021605 28 49 0.0 0.0 0.00 0.00 0.00 58 1012.6
20260831020801 28 0 0.0 0.0 0.00 0.00 0.00 56 1012.7
20260831020012 28 49 0.0 0.0 0.00 0.00 0.00 55 1012.3
20260831015901 28 0 0.0 0.0 0.00 0.00 0.00 55 1012.5
20260831015001 29 49 0.0 1.6 0.00 0.00 0.00 55 1012.4
20260831014609 29 49 0.0 3.2 0.00 0.00 0.00 55 1012.1
20260831014101 30 50 1.6 3.2 0.00 0.00 0.00 55 1012.4
20260831013201 30 49 1.6 4.8 0.00 0.00 0.00 52 1012.3
20260831013111 30 49 1.6 4.8 0.00 0.00 0.00 51 1012.1
20260831012305 30 50 1.6 3.2 0.00 0.00 0.00 50 1012.2
20260831011507 31 49 1.6 3.2 0.00 0.00 0.00 48 1012.0
20260831011401 31 49 1.6 3.2 0.00 0.00 0.00 48 1012.2
20260831010122 32 49 0.0 3.2 0.00 0.00 0.00 45 1011.9
20260831004701 33 0 0.0 0.0 0.00 0.00 0.00 42 1012.1
20260831004503 33 44 0.0 0.0 0.00 0.00 0.00 41 1012.0
20260831003801 33 45 0.0 1.6 0.00 0.00 0.00 41 1012.2
20260831003003 33 44 0.0 1.6 0.00 0.00 0.00 40 1012.0
20260831002901 34 44 0.0 1.6 0.00 0.00 0.00 40 1012.2
20260831002001 34 154 0.0 3.2 0.00 0.00 0.00 39 1012.3
20260831001509 34 158 0.0 4.8 0.00 0.00 0.00 38 1012.0
20260831001101 35 144 1.6 4.8 0.00 0.00 0.00 39 1012.2
20260831000203 35 141 1.6 4.8 0.00 0.00 0.00 38 1012.1
20260831000116 35 124 1.6 4.8 0.00 0.00 0.00 37 1011.9
20260830235301 35 151 3.2 6.4 0.00 0.00 0.00 36 1012.1
20260830234606 35 153 3.2 6.4 0.00 0.00 0.00 35 1012.0
20260830234401 35 148 3.2 11.3 0.00 0.00 0.00 35 1012.3
20260830233501 36 148 3.2 11.3 0.00 0.00 0.00 34 1012.2
20260830233103 36 136 3.2 9.7 0.00 0.00 0.00 34 1012.0
20260830232601 36 148 6.4 11.3 0.00 0.00 0.00 33 1012.1
20260830231701 37 150 6.4 11.3 0.00 0.00 0.00 31 1012.2
20260830231508 36 155 4.8 11.3 0.00 0.00 0.00 31 1012.0
20260830230801 37 136 4.8 9.7 0.00 0.00 0.00 30 1012.2
20260830230005 37 145 4.8 12.9 0.00 0.00 0.00 31 1011.9
20260830225901 37 106 4.8 12.9 0.00 0.00 0.00 31 1012.2
20260830224504 37 96 3.2 12.9 0.00 0.00 0.00 32 1012.0
20260830224101 37 126 6.4 12.9 0.00 0.00 0.00 32 1012.2
20260830223201 38 127 6.4 14.5 0.00 0.00 0.00 31 1012.2
20260830223003 37 147 6.4 14.5 0.00 0.00 0.00 30 1012.0
20260830222301 38 94 3.2 12.9 0.00 0.00 0.00 29 1012.2
20260830221606 37 101 1.6 11.3 0.00 0.00 0.00 28 1011.9
20260830221401 38 110 3.2 11.3 0.00 0.00 0.00 30 1012.1
20260830220501 38 129 4.8 11.3 0.00 0.00 0.00 30 1012.2
20260830220003 38 123 4.8 11.3 0.00 0.00 0.00 29 1012.0
20260830214606 37 102 1.6 14.5 0.00 0.00 0.00 25 1012.1
20260830213104 38 120 6.4 17.7 0.00 0.00 0.00 29 1012.3
20260830212901 38 156 8.0 17.7 0.00 0.00 0.00 28 1012.5
20260830212001 38 137 6.4 12.9 0.00 0.00 0.00 29 1012.7
20260830211607 38 67 4.8 12.9 0.00 0.00 0.00 29 1012.6
20260830210201 38 159 4.8 17.7 0.00 0.00 0.00 30 1012.8
20260830210004 38 159 3.2 9.7 0.00 0.00 0.00 28 1012.5
20260830205301 38 136 8.0 14.5 0.00 0.00 0.00 25 1013.0
20260830204605 38 146 6.4 14.5 0.00 0.00 0.00 28 1012.9
20260830204401 38 168 8.0 12.9 0.00 0.00 0.00 29 1013.1
20260830203501 38 179 6.4 14.5 0.00 0.00 0.00 32 1013.3
20260830203003 38 192 4.8 12.9 0.00 0.00 0.00 37 1013.1
20260830202601 38 171 6.4 11.3 0.00 0.00 0.00 36 1013.4
20260830201605 38 153 6.4 12.9 0.00 0.00 0.00 38 1013.1
20260830200801 37 194 4.8 14.5 0.00 0.00 0.00 40 1013.6
20260830200006 37 225 6.4 19.3 0.00 0.00 0.00 39 1013.5
20260830195901 38 170 8.0 19.3 0.00 0.00 0.00 40 1013.7